www.pogodaiklimat.ru

Погода и климат >> Архив погоды >> Россия >> Якутия >> Сого-Хая


ПОГОДА в Сого-Хае

  • Прогноз погоды в Сого-Хае
  • Монитор погоды в Сого-Хае
  • Климат города

АРХИВ ПОГОДЫ в Сого-Хае

Время (UTC), дата Ветер
(напр.,м/с)
 
Видим.   Явления Облачность Т
(С)
Тd
(С)
f
(%)
Тe
(С)
Тes
(С)
Комфортность P
(гПа)
Po
(гПа)
Тmin
(С)
Tmax
(С)
R
(мм)
R24
(мм)
S
(см)
15 11.12 В 4 50 км позёмок {метель} 10/0
[As trans Cs]
-33.7 -35.9 80 -46 -46 опасность
обморожения
1026.3 1013.8
18 11.12 В 4 50 км позёмок {метель} 10/0
[As trans Cs]
-33.4 -35.6 80 -45 -45 опасность
обморожения
1026.0 1013.6
21 11.12 В 4 50 км позёмок {метель} 10/0
[As trans Cs]
-33.2 -35.6 79 -45 -45 опасность
обморожения
1025.9 1013.5
00 12.12 В 4 50 км позёмок {метель} 10/0
[As trans Cs]
-32.5 -34.8 80 -44 -44 опасность
обморожения
1026.0 1013.6 -34.1 26
03 12.12 В 4 50 км позёмок {метель} 10/0
[As trans Cs]
-32.3 -34.6 80 -44 -44 опасность
обморожения
1026.3 1013.9
06 12.12 В 4 50 км позёмок {метель} 10/0
[Cs]
-32.0 -34.4 79 -44 -44 опасность
обморожения
1026.4 1014.0
09 12.12 В 4 50 км позёмок {метель} 10/0
[Cs]
-31.9 -34.4 78 -44 -44 опасность
обморожения
1026.5 1014.2
12 12.12 В 3 50 км {метель} 10/0
[Cs]
-32.0 -34.4 79 -42 -42 опасность
обморожения
1026.9 1014.5 -31.0
15 12.12 В 3 50 км 9/0
[Cs]
-33.0 -35.4 79 -43 -43 опасность
обморожения
1026.7 1014.3
18 12.12 В 2 50 км 10/0
[Cs]
-32.5 -34.8 80 -40 -40 опасность
обморожения
1026.2 1013.8
21 12.12 В 2 50 км 10/0
[Cs]
-32.1 -34.4 80 -40 -40 опасность
обморожения
1025.9 1013.5
00 13.12 В 1 50 км 8/0
[Cs]
-32.3 -34.6 80 -37 -37 опасность
обморожения
1025.9 1013.5 -33.1 26
03 13.12 В 1 50 км 8/0
[Ac trans Cs]
-32.0 -34.4 79 -36 -36 опасность
обморожения
1024.7 1012.4
06 13.12 ЮВ 2 50 км 8/0
[Ac trans Cs]
-31.6 -33.9 80 -39 -39 опасность
обморожения
1023.3 1011.1
09 13.12 ЮВ 2 50 км 8/0
[Ac trans Cs]
-32.6 -34.8 81 -41 -41 опасность
обморожения
1023.8 1010.5
12 13.12 ЮВ 3 50 км 10/0
[As trans Cs]
-31.2 -33.6 79 -41 -41 опасность
обморожения
1020.7 1008.5 -31.2
15 13.12 ЮВ 4 10 км слабый снег {метель} 10/0
[As op Cs]
-30.5 -33.0 79 -42 -42 опасность
обморожения
1018.8 1006.7
18 13.12 ЮВ 4 10 км слабый снег {метель} 10/0
[As op Cs]
-29.9 -32.4 79 -41 -41 опасность
обморожения
1016.4 1004.4
21 13.12 ЮВ 6-10
{12}
10 км слабый снег {метель} 10/0
[As op]
-29.0 -31.4 80 -42 -42 опасность
обморожения
1014.1 1002.1
00 14.12 ЮВ 6-10
{13}
10 км слабый снег {метель} 10/0
[As op]
-27.9 -30.3 80 -41 -41 опасность
обморожения
1012.8 1000.9 -31.2 0.6 26
03 14.12 ЮВ 6-10
{12}
50 км позёмок {снег, метель} 10/0
[As trans Cs]
-27.1 -29.5 80 -40 -40 опасность
обморожения
1011.7 999.8
06 14.12 ЮВ 6-10
{12}
10 км слабый снег {метель} 10/0
[As op Cs]
-26.5 -29.0 79 -39 -39 опасность
обморожения
1011.2 999.3
09 14.12 В 6-10
{12}
50 км позёмок {снег, метель} 10/0
[As trans Cs]
-26.7 -29.2 79 -39 -39 опасность
обморожения
1011.0 999.1
12 14.12 В 6-10
{12}
50 км позёмок {снег, метель} 10/0
[As trans Cs]
-27.0 -29.5 79 -40 -40 опасность
обморожения
1011.1 999.2 -26.2 0.3
15 14.12 В 6-10
{12}
10 км слабый снег {метель} 10/0
[As op Cs]
-27.6 -30.0 80 -41 -41 опасность
обморожения
1011.6 999.7
18 14.12 В 6-10
{12}
10 км слабый снег {метель} 10/0
[As op Cs]
-27.9 -30.3 80 -41 -41 опасность
обморожения
1010.8 998.9
21 14.12 В 6-10
{12}
10 км слабый снег {метель} 10/0
[As op Cs]
-27.1 -29.5 80 -40 -40 опасность
обморожения
1009.6 997.7
00 15.12 В 6-10
{12}
10 км слабый снег {метель} 10/0
[As op]
-26.6 -29.0 80 -39 -39 опасность
обморожения
1008.8 998.0 -28.4 0.7 26
03 15.12 В 6-10
{12}
50 км позёмок {снег, метель} 10/0
[As trans]
-26.1 -28.6 79 -39 -39 опасность
обморожения
1007.9 996.1
06 15.12 В 6-10
{12}
10 км слабый снег {метель} 10/0
[As op]
-24.2 -26.7 80 -36 -36 опасность
обморожения
1006.6 994.9
09 15.12 В 6-10
{12}
10 км слабый снег {метель} 10/0
[As op]
-23.6 -25.5 84 -35 -35 опасность
обморожения
1006.1 994.5
12 15.12 В 6-10
{12}
10 км слабый снег {метель} 10/0
[As op]
-23.0 -24.9 84 -35 -35 опасность
обморожения
1005.7 994.1 -22.8 2
15 15.12 В 6-10
{12}
10 км слабый снег {метель} 10/0
[As op]
-22.9 -24.8 84 -35 -35 опасность
обморожения
1004.9 993.3
18 15.12 В 6-10
{12}
10 км слабый снег {метель} 10/0
[As op]
-23.6 -25.5 84 -35 -35 опасность
обморожения
1004.8 993.2
21 15.12 В 6-10
{12}
10 км слабый снег {метель} 10/0
[As op]
-24.6 -26.5 84 -37 -37 опасность
обморожения
1004.8 993.1
00 16.12 В 6-10
{12}
50 км позёмок {снег, метель} 10/0
[As trans]
-24.5 -26.4 84 -37 -37 опасность
обморожения
1004.4 992.6 -24.8 2 26
03 16.12 В 6-10
{12}
50 км позёмок {метель} 10/0
[As trans]
-24.4 -26.2 85 -37 -37 опасность
обморожения
1003.5 991.8
06 16.12 ЮВ 6-10
{12}
50 км позёмок {метель} 10/0
[As trans]
-22.9 -24.8 84 -35 -35 опасность
обморожения
1002.5 990.9
09 16.12 ЮВ 6-10
{12}
10 км слабый снег {метель} 10/0
[As op]
-22.1 -24.0 84 -34 -34 опасность
обморожения
1002.5 990.9
12 16.12 ЮВ 6-10
{12}
10 км слабый снег {метель} 10/0
[As op]
-22.0 -23.9 84 -33 -33 опасность
обморожения
1002.4 990.9 -21.8 2
15 16.12 ЮВ 4
{10}
10 км слабый снег {метель} 10/0
[As op]
-22.1 -24.0 84 -32 -32 опасность
обморожения
1002.6 991.0
18 16.12 ЮВ 4 10 км слабый снег {метель} 10/0
[As op]
-21.9 -23.8 85 -31 -31 опасность
обморожения
1002.8 991.3
21 16.12 ЮВ 2 50 км {снег, метель} 10/0
[As trans]
-24.6 -26.5 84 -31 -31 опасность
обморожения
1004.4 992.7
00 17.12 ЮВ 1 50 км {снег, метель} 10/0
[As trans]
-26.5 -28.4 84 -30 -30 1005.8 994.0 -26.7 1 27
03 17.12 штиль 0 50 км 8/0
[Cs]
-28.5 -30.4 84 -29 -29 1006.9 995.0
06 17.12 штиль 0 50 км 5/0
[Ci fib]
-29.7 -31.5 84 -30 -30 1007.2 995.3
09 17.12 штиль 0 50 км 10/0
[Cs]
-30.6 -32.4 84 -31 -31 опасность
обморожения
1007.4 995.4
12 17.12 В 1 50 км 10/0
[As trans]
-30.4 -32.1 85 -35 -35 опасность
обморожения
1007.3 995.3 -26.5
15 17.12 В 1 50 км 10/0
[As trans Cs]
-30.6 -32.4 84 -35 -35 опасность
обморожения
1006.5 994.5
18 17.12 В 1 50 км 10/0
[As trans Cs]
-31.1 -32.8 85 -35 -35 опасность
обморожения
1006.2 994.2
21 17.12 В 2 50 км 8/0
[Cs]
-30.0 -31.7 85 -37 -37 опасность
обморожения
1005.8 993.8
00 18.12 ЮВ 2 50 км 6/0
[Cs]
-29.8 -31.5 85 -37 -37 опасность
обморожения
1005.7 993.9 -31.4 27
03 18.12 ЮВ 2 50 км 6/0
[Cs]
-27.9 -29.7 84 -35 -35 опасность
обморожения
1005.8 994.0
06 18.12 ЮВ 1 50 км 6/0
[Cs]
-27.6 -29.3 85 -31 -31 опасность
обморожения
1006.1 994.3
09 18.12 штиль 0 50 км 4/0
[Ci fib]
-30.6 -32.4 84 -31 -31 опасность
обморожения
1007.2 995.2
12 18.12 штиль 0 50 км 4/0
[Ci fib]
-33.6 -35.0 87 -34 -34 опасность
обморожения
1008.4 996.3 -27.1

 

Местоположение метеостанции Сого-Хая (Якутия, Россия): широта 64.28 долгота 126.40 высота над уровнем моря 85 м.

В архиве по умолчанию представлена погода в Сого-Хае за последнюю неделю. Архивные данные за месяц целиком и за предыдущие месяцы, начиная с января 2011 года, Вы можете получить, выбрав интересующий диапазон дат из раскрывающегося списка и нажав кнопку "Ввод!".


*Определитесь, кто Вы:
робот инопланетянин человек

Внимание! Время в таблицах - всемирное. Для получения местного времени необходимо прибавить поправку, которая в Сого-Хае равна 9 ч.

Смотрите также архив погоды в соседних городах и на ближайших метеорологических станциях:

Погода в Сангаре (Якутия, Россия) (61 км)
Погода в Хатырык-Хомо (Якутия, Россия) (86 км)
Погода в Бестяхской Звероферме (Якутия, Россия) (157 км)
Погода в Батамае (Якутия, Россия) (169 км)
Погода в Сеген-Кюели (Якутия, Россия) (192 км)
Погода в Себян-Кюеле (Якутия, Россия) (205 км)
Погода в Бердигестяхе (Якутия, Россия) (226 км)
Погода в Намцах (Якутия, Россия) (235 км)
Погода в Вилюйске (Якутия, Россия) (241 км)
Погода в Тонгулахе (Якутия, Россия) (279 км)

Пояснения к столбцам:

Ветер - указаны скорость ветра в м/с - средняя за 10 мин, порывы в срок и между сроками (в фигурных скобках) и направление, откуда дует ветер: С - северный, СВ - северо-восточный, В - восточный, ЮВ - юго-восточный, Ю - южный, ЮЗ - юго-западный, З - западный, СЗ - северо-западный.
Видимость - горизонтальная дальность видимости в метрах или километрах. При видимости от 1 до 10 км при отсутствии осадков обычно наблюдается дымка, при ухудшении видимости до 1 км и менее - туман. В сухую погоду видимость может ухудшаться дымом, пылью или мглою.
Явления - указаны атмосферные явления, наблюдавшиеся в срок или в последний час перед сроком; фигурными скобками обозначены явления, наблюдавшиеся между сроками (за 1-3 часа до срока); квадратными скобками обозначены град или гололедные отложения с указанием их диаметра в мм.
Облачность - указаны через наклонную черту общая и нижняя облачность в баллах и высота нижней границы облаков в метрах; квадратными скобками обозначены формы облаков: Ci - перистые, Cs - перисто-слоистые, Cc - перисто-кучевые, Ac - высококучевые, As - высокослоистые, Sc - слоисто-кучевые, Ns - слоисто-дождевые, Cu - кучевые, Cb - кучево-дождевые. Подробнее классификацию облаков см. в Атласе облаков (PDF).
T - Температура воздуха - температура, измеренная на высоте 2 м над землей.
Td - Температура точки росы - температура, при понижении до которой содержащийся в воздухе водяной пар достигнет насыщения.
f - Относительная влажность воздуха - влажноcть воздуха, измеренная на высоте 2 м над землей.
Te - Эффективная температура - температура, которую ощущает одетый по сезону человек в тени. Характеристика душности погоды. При расчете учитывается влияние влажности воздуха и скорости ветра на теплоощущения человека.
Tes - Эффективная температура на солнце - температура, которую ощущает человек, с поправкой на солнечный нагрев. Характеристика знойности погоды. Зависит от высоты солнца над горизонтом, облачности и скорости ветра. Ночью, в пасмурную погоду, а также при ветре 12 м/с и более поправка равна нулю.
P - Атмосферное давление - приведенное к уровню моря атмосферное давление.
Po - Атмосферное давление - измеренное на уровне метеостанции атмосферное давление.
Tmin - Минимальная температура - минимум температуры воздуха на высоте 2 м над землей.
Tmax - Максимальная температура - максимум температуры воздуха на высоте 2 м над землей.
R - Количество осадков - Количество выпавших осадков за период времени, мм. При наведении курсора мыши на число - период времени, за который выпало указанное количество осадков.
R24 - Количество осадков - Количество выпавших осадков за 24 часа, мм.
S - Снежный покров - Высота снежного покрова, см. При наведении курсора мыши на число - состояние снежного покрова и степень покрытия местности в баллах.